Winnipeg Forks, Manitoba

1:48 PM CDT on June 28, 2017 (GMT -0500)
Winnipeg Forks

Weather History for CXWN - September, 2013

Change the Weather History Date:

Tuesday, September 24, 2013

  Actual Average (CYWG) Record (CYWG)
Temperature  
Mean Temperature 67 °F -  
Max Temperature 76 °F 59 °F 86 °F (1997)
Min Temperature 58 °F 38 °F 32 °F (2001)
Cooling Degree Days 2    
Growing Degree Days 17 (Base 50)    
Moisture  
Dew Point 46 °F    
Average Humidity 54    
Maximum Humidity 84    
Minimum Humidity 16    
Precipitation  
Precipitation 0.00 in - - ()
Sea Level Pressure  
Sea Level Pressure 29.79 in    
Wind  
Wind Speed 4 mph ()    
Max Wind Speed 7 mph    
Max Gust Speed -    
Averages and records for this station are not official NWS values.
T = Trace of Precipitation, MM = Missing Value Source: Averaged Metar Reports

Daily Weather History Graph

Daily Weather History Graph

Search for Another Location

Airport or City:

Trip Planner

Search our weather history database for the weather conditions in past years. The results will help you decide how hot, cold, wet, or windy it might be!

Date:

Astronomy

Sep. 24, 2013 Rise Set
Actual Time 7:18 AM CDT 7:21 PM CDT
Civil Twilight 6:46 AM CDT 7:53 PM CDT
Nautical Twilight 6:08 AM CDT 8:31 PM CDT
Astronomical Twilight 5:29 AM CDT 9:10 PM CDT
Moon 10:10 PM CDT (9/24) 1:03 PM CDT (9/24)
Length of Visible Light 13h 07m
Length of Day
12h 03m
Waning Gibbous, 73% of the Moon is Illuminated
Sep 24
Waning Gibbous
Sep 26
Last Quarter
Oct 4
New
Oct 11
First Quarter
Oct 18
Full

Hourly Weather History & Observations

Time (CDT) Temp. Dew Point Humidity Pressure Visibility Wind Dir Wind Speed Gust Speed Precip Events Conditions
12:00 AM 63.1 °F 55.2 °F 75% 29.68 in - WNW 3.5 mph - N/A   Unknown
1:00 AM 61 °F 55 °F 75% 29.71 in - WSW 3.5 mph - -  
1:00 AM 61.3 °F 55.2 °F 80% 29.71 in - WSW 3.5 mph - N/A   Unknown
2:00 AM 60.1 °F 54.1 °F 81% 29.74 in - WSW 3.5 mph - N/A   Unknown
3:00 AM 59.5 °F 54.5 °F 83% 29.75 in - SW 3.5 mph - N/A   Unknown
4:00 AM 58.6 °F 53.8 °F 84% 29.76 in - SSW 2.3 mph - N/A   Unknown
5:00 AM 58.6 °F 53.1 °F 82% 29.76 in - SW 4.6 mph - N/A   Unknown
6:00 AM 58.8 °F 52.5 °F 80% 29.76 in - SSW 2.3 mph - N/A   Unknown
7:00 AM 58 °F 52 °F 75% 29.78 in - SSW 3.5 mph - -  
7:00 AM 58.5 °F 52.2 °F 80% 29.78 in - SSW 3.5 mph - N/A   Unknown
8:00 AM 58.3 °F 52.0 °F 80% 29.79 in - SW 5.8 mph - N/A   Unknown
9:00 AM 58.3 °F 51.8 °F 79% 29.81 in - SW 5.8 mph - N/A   Unknown
10:00 AM 61.0 °F 50.2 °F 68% 29.81 in - SW 6.9 mph - N/A   Unknown
11:00 AM 65.5 °F 49.1 °F 55% 29.82 in - SW 5.8 mph - N/A   Unknown
12:00 PM 68.9 °F 47.7 °F 47% 29.83 in - SW 6.9 mph - N/A   Unknown
1:00 PM 73 °F 46 °F 26% 29.83 in - SW 4.6 mph - -  
1:00 PM 72.7 °F 45.5 °F 38% 29.83 in - SW 4.6 mph - N/A   Unknown
2:00 PM 75.2 °F 35.8 °F 24% 29.81 in - WSW 5.8 mph - N/A   Unknown
3:00 PM 75.4 °F 35.4 °F 23% 29.81 in - West 5.8 mph - N/A   Unknown
4:00 PM 75.9 °F 36.0 °F 23% 29.80 in - West 5.8 mph - N/A   Unknown
5:00 PM 75.9 °F 34.7 °F 22% 29.80 in - West 4.6 mph - N/A   Unknown
6:00 PM 74.8 °F 35.2 °F 24% 29.81 in - WSW 3.5 mph - N/A   Unknown
7:00 PM 72 °F 36 °F 16% 29.81 in - SW 4.6 mph - -  
7:00 PM 71.6 °F 36.0 °F 27% 29.81 in - SW 4.6 mph - N/A   Unknown
8:00 PM 67.5 °F 35.8 °F 31% 29.82 in - WSW 2.3 mph - N/A   Unknown
9:00 PM 63.9 °F 38.1 °F 39% 29.83 in - WSW 2.3 mph - N/A   Unknown
10:00 PM 60.8 °F 39.0 °F 45% 29.84 in - SW 2.3 mph - N/A   Unknown
11:00 PM 59.5 °F 40.1 °F 49% 29.85 in - SSW 3.5 mph - N/A   Unknown